Time,TemperatureF,DewpointF,PressureIn,WindDirection,WindDirectionDegrees,WindSpeedMPH,WindSpeedGustMPH,Humidity,HourlyPrecipIn,Conditions,Clouds,dailyrainin,SoftwareType,DateUTC
2013-03-31 00:02:00,41.0,38.0,30.05,NW,315,0.0,0.0,90,0.00,,,0.00,,2013-03-31 07:02:00,
2013-03-31 00:22:00,41.0,39.0,30.05,NW,315,0.0,1.0,91,0.00,,,0.00,,2013-03-31 07:22:00,
2013-03-31 00:32:00,40.0,38.0,30.05,NW,315,0.0,2.0,91,0.00,,,0.00,,2013-03-31 07:32:00,
2013-03-31 00:52:00,40.0,38.0,30.05,NW,315,0.0,1.0,92,0.00,,,0.00,,2013-03-31 07:52:00,
2013-03-31 01:02:00,40.0,38.0,30.04,NW,315,0.0,1.0,92,0.00,,,0.00,,2013-03-31 08:02:00,
2013-03-31 01:22:00,39.0,37.0,30.04,NW,315,0.0,0.0,92,0.00,,,0.00,,2013-03-31 08:22:00,
2013-03-31 01:32:00,39.0,37.0,30.04,NW,315,0.0,0.0,93,0.00,,,0.00,,2013-03-31 08:32:00,
2013-03-31 01:52:00,38.0,36.0,30.04,NW,315,0.0,1.0,93,0.00,,,0.00,,2013-03-31 08:52:00,
2013-03-31 02:01:00,38.0,36.0,30.04,NW,315,0.0,0.0,93,0.00,,,0.00,,2013-03-31 09:01:00,
2013-03-31 02:21:00,38.0,36.0,30.03,NW,315,0.0,0.0,93,0.00,,,0.00,,2013-03-31 09:21:00,
2013-03-31 02:32:00,38.0,36.0,30.03,NW,315,0.0,0.0,94,0.00,,,0.00,,2013-03-31 09:32:00,
2013-03-31 02:52:00,38.0,36.0,30.03,NW,315,0.0,1.0,94,0.00,,,0.00,,2013-03-31 09:52:00,
2013-03-31 03:03:00,38.0,36.0,30.02,NW,315,0.0,2.0,94,0.00,,,0.00,,2013-03-31 10:03:00,
2013-03-31 03:12:00,38.0,36.0,30.02,NW,315,0.0,2.0,94,0.00,,,0.00,,2013-03-31 10:12:00,
2013-03-31 03:22:00,38.0,36.0,30.02,NW,315,0.0,1.0,94,0.00,,,0.00,,2013-03-31 10:22:00,
2013-03-31 03:32:00,37.0,35.0,30.02,NW,315,0.0,1.0,94,0.00,,,0.00,,2013-03-31 10:32:00,
2013-03-31 03:52:00,37.0,35.0,30.02,NW,315,0.0,0.0,94,0.00,,,0.00,,2013-03-31 10:52:00,
2013-03-31 04:02:00,37.0,36.0,30.01,NW,315,0.0,0.0,95,0.00,,,0.00,,2013-03-31 11:02:00,
2013-03-31 04:22:00,37.0,35.0,30.01,NW,315,0.0,0.0,94,0.00,,,0.00,,2013-03-31 11:22:00,
2013-03-31 04:32:00,36.0,34.0,30.01,NW,315,0.0,2.0,94,0.00,,,0.00,,2013-03-31 11:32:00,
2013-03-31 04:51:00,36.0,34.0,30.01,NW,315,0.0,2.0,94,0.00,,,0.00,,2013-03-31 11:51:00,
2013-03-31 05:02:00,36.0,34.0,30.01,NW,315,0.0,1.0,94,0.00,,,0.00,,2013-03-31 12:02:00,
2013-03-31 05:22:00,36.0,34.0,30.01,NW,315,0.0,0.0,94,0.00,,,0.00,,2013-03-31 12:22:00,
2013-03-31 05:32:00,35.0,33.0,30.01,NW,315,0.0,0.0,94,0.00,,,0.00,,2013-03-31 12:32:00,
2013-03-31 05:52:00,35.0,34.0,30.01,NW,315,0.0,1.0,95,0.00,,,0.00,,2013-03-31 12:52:00,
2013-03-31 06:02:00,35.0,33.0,30.00,NW,315,0.0,0.0,94,0.00,,,0.00,,2013-03-31 13:02:00,
2013-03-31 06:22:00,34.0,32.0,30.00,NW,315,0.0,0.0,94,0.00,,,0.00,,2013-03-31 13:22:00,
2013-03-31 06:32:00,34.0,32.0,30.01,NW,315,0.0,1.0,94,0.00,,,0.00,,2013-03-31 13:32:00,
2013-03-31 06:52:00,34.0,32.0,30.01,NW,315,0.0,0.0,94,0.00,,,0.00,,2013-03-31 13:52:00,
2013-03-31 07:02:00,34.0,33.0,30.01,NW,315,0.0,2.0,95,0.00,,,0.00,,2013-03-31 14:02:00,
2013-03-31 07:22:00,34.0,33.0,30.01,NW,315,1.0,2.0,95,0.00,,,0.00,,2013-03-31 14:22:00,
2013-03-31 07:32:00,34.0,33.0,30.01,NW,315,0.0,2.0,95,0.00,,,0.00,,2013-03-31 14:32:00,
2013-03-31 08:02:00,34.0,33.0,30.02,NW,315,0.0,0.0,95,0.00,,,0.00,,2013-03-31 15:02:00,
2013-03-31 08:22:00,35.0,34.0,30.02,NW,315,0.0,0.0,95,0.00,,,0.00,,2013-03-31 15:22:00,
2013-03-31 08:33:00,36.0,35.0,30.02,NW,315,0.0,1.0,96,0.00,,,0.00,,2013-03-31 15:33:00,
2013-03-31 08:53:00,41.0,40.0,30.02,NW,315,0.0,1.0,96,0.00,,,0.00,,2013-03-31 15:53:00,
2013-03-31 09:02:00,44.0,43.0,30.01,NW,315,0.0,0.0,96,0.00,,,0.00,,2013-03-31 16:02:00,
2013-03-31 09:12:00,44.0,43.0,30.01,NW,315,0.0,0.0,96,0.00,,,0.00,,2013-03-31 16:12:00,
2013-03-31 09:22:00,47.0,46.0,30.01,NW,315,0.0,0.0,96,0.00,,,0.00,,2013-03-31 16:22:00,
2013-03-31 09:32:00,50.0,46.0,30.01,SW,227,1.0,3.0,85,0.00,,,0.00,,2013-03-31 16:32:00,
2013-03-31 09:42:00,50.0,46.0,30.01,SW,227,1.0,3.0,85,0.00,,,0.00,,2013-03-31 16:42:00,
2013-03-31 09:52:00,53.0,47.0,30.01,SW,226,0.0,3.0,79,0.00,,,0.00,,2013-03-31 16:52:00,
2013-03-31 10:02:00,55.0,47.0,30.00,West,275,1.0,6.0,74,0.00,,,0.00,,2013-03-31 17:02:00,
2013-03-31 10:12:00,55.0,47.0,30.00,West,275,1.0,6.0,74,0.00,,,0.00,,2013-03-31 17:12:00,
2013-03-31 10:22:00,56.0,46.0,30.00,SW,232,1.0,5.0,69,0.00,,,0.00,,2013-03-31 17:22:00,
2013-03-31 10:32:00,58.0,47.0,30.00,WNW,288,2.0,6.0,67,0.00,,,0.00,,2013-03-31 17:32:00,
2013-03-31 10:51:00,58.0,46.0,30.00,WSW,238,2.0,6.0,64,0.00,,,0.00,,2013-03-31 17:51:00,
2013-03-31 11:21:00,60.0,47.0,30.00,WNW,287,1.0,5.0,63,0.00,,,0.00,,2013-03-31 18:21:00,
2013-03-31 11:32:00,61.0,46.0,30.00,WNW,298,3.0,6.0,58,0.00,,,0.00,,2013-03-31 18:32:00,
2013-03-31 11:52:00,62.0,49.0,30.00,SW,227,2.0,6.0,62,0.00,,,0.00,,2013-03-31 18:52:00,
2013-03-31 12:02:00,63.0,48.0,30.00,NW,314,2.0,7.0,59,0.00,,,0.00,,2013-03-31 19:02:00,
2013-03-31 12:21:00,64.0,49.0,30.00,West,261,2.0,7.0,59,0.00,,,0.00,,2013-03-31 19:21:00,
2013-03-31 12:32:00,64.0,48.0,29.99,WNW,287,4.0,6.0,56,0.00,,,0.00,,2013-03-31 19:32:00,
2013-03-31 12:42:00,64.0,48.0,29.99,WNW,287,4.0,6.0,56,0.00,,,0.00,,2013-03-31 19:42:00,
2013-03-31 12:53:00,65.0,47.0,29.99,WNW,300,3.0,7.0,53,0.00,,,0.00,,2013-03-31 19:53:00,
2013-03-31 13:02:00,65.0,46.0,29.98,NNW,336,5.0,9.0,50,0.00,,,0.00,,2013-03-31 20:02:00,
2013-03-31 13:11:00,65.0,46.0,29.98,NNW,336,5.0,9.0,50,0.00,,,0.00,,2013-03-31 20:11:00,
2013-03-31 13:22:00,65.0,48.0,29.98,WNW,290,3.0,10.0,55,0.00,,,0.00,,2013-03-31 20:22:00,
2013-03-31 13:32:00,66.0,48.0,29.98,NW,315,4.0,8.0,52,0.00,,,0.00,,2013-03-31 20:32:00,
2013-03-31 13:42:00,66.0,48.0,29.98,NW,315,4.0,8.0,52,0.00,,,0.00,,2013-03-31 20:42:00,
2013-03-31 13:52:00,67.0,51.0,29.97,NW,325,3.0,9.0,56,0.00,,,0.00,,2013-03-31 20:52:00,
2013-03-31 14:02:00,67.0,49.0,29.97,WNW,286,2.0,7.0,53,0.00,,,0.00,,2013-03-31 21:02:00,
2013-03-31 14:12:00,67.0,49.0,29.97,WNW,286,2.0,7.0,53,0.00,,,0.00,,2013-03-31 21:12:00,
2013-03-31 14:22:00,69.0,51.0,29.96,WNW,285,3.0,6.0,53,0.00,,,0.00,,2013-03-31 21:22:00,
2013-03-31 14:33:00,69.0,48.0,29.96,NW,317,4.0,7.0,48,0.00,,,0.00,,2013-03-31 21:33:00,
2013-03-31 14:43:00,69.0,48.0,29.96,NW,317,4.0,7.0,48,0.00,,,0.00,,2013-03-31 21:43:00,
2013-03-31 14:53:00,69.0,49.0,29.95,WNW,292,5.0,8.0,49,0.00,,,0.00,,2013-03-31 21:53:00,
2013-03-31 15:02:00,69.0,50.0,29.95,NW,312,4.0,9.0,51,0.00,,,0.00,,2013-03-31 22:02:00,
2013-03-31 15:12:00,69.0,50.0,29.95,NW,312,4.0,9.0,51,0.00,,,0.00,,2013-03-31 22:12:00,
2013-03-31 15:23:00,69.0,50.0,29.93,WNW,302,3.0,8.0,50,0.00,,,0.00,,2013-03-31 22:23:00,
2013-03-31 15:32:00,69.0,47.0,29.93,NNW,336,5.0,8.0,45,0.00,,,0.00,,2013-03-31 22:32:00,
2013-03-31 15:42:00,69.0,47.0,29.93,NNW,336,5.0,8.0,45,0.00,,,0.00,,2013-03-31 22:42:00,
2013-03-31 15:53:00,70.0,49.0,29.93,NW,306,4.0,9.0,47,0.00,,,0.00,,2013-03-31 22:53:00,
2013-03-31 16:02:00,70.0,48.0,29.91,WNW,296,6.0,10.0,45,0.00,,,0.00,,2013-03-31 23:02:00,
2013-03-31 16:12:00,70.0,48.0,29.91,WNW,296,6.0,10.0,45,0.00,,,0.00,,2013-03-31 23:12:00,
2013-03-31 16:22:00,70.0,47.0,29.91,WNW,289,6.0,10.0,44,0.00,,,0.00,,2013-03-31 23:22:00,
2013-03-31 16:31:00,68.0,48.0,29.91,WNW,287,5.0,10.0,49,0.00,,,0.00,,2013-03-31 23:31:00,
2013-03-31 16:42:00,68.0,48.0,29.91,WNW,287,5.0,10.0,49,0.00,,,0.00,,2013-03-31 23:42:00,
2013-03-31 16:53:00,69.0,48.0,29.91,NNW,331,3.0,7.0,48,0.00,,,0.00,,2013-03-31 23:53:00,
2013-03-31 17:01:00,69.0,47.0,29.90,WNW,296,6.0,9.0,46,0.00,,,0.00,,2013-04-01 00:01:00,
2013-03-31 17:12:00,69.0,47.0,29.90,WNW,296,6.0,9.0,46,0.00,,,0.00,,2013-04-01 00:12:00,
2013-03-31 17:22:00,69.0,48.0,29.89,NW,315,5.0,9.0,48,0.00,,,0.00,,2013-04-01 00:22:00,
2013-03-31 17:31:00,68.0,48.0,29.89,NW,311,4.0,10.0,48,0.00,,,0.00,,2013-04-01 00:31:00,
2013-03-31 17:42:00,68.0,48.0,29.89,NW,311,4.0,10.0,48,0.00,,,0.00,,2013-04-01 00:42:00,
2013-03-31 17:52:00,68.0,48.0,29.89,West,279,3.0,10.0,48,0.00,,,0.00,,2013-04-01 00:52:00,
2013-03-31 18:01:00,68.0,48.0,29.89,SW,217,1.0,9.0,48,0.00,,,0.00,,2013-04-01 01:01:00,
2013-03-31 18:11:00,68.0,48.0,29.89,SW,217,1.0,9.0,48,0.00,,,0.00,,2013-04-01 01:11:00,
2013-03-31 18:22:00,67.0,46.0,29.89,WNW,292,3.0,10.0,47,0.00,,,0.00,,2013-04-01 01:22:00,
2013-03-31 18:31:00,67.0,47.0,29.88,WSW,246,2.0,6.0,49,0.00,,,0.00,,2013-04-01 01:31:00,
2013-03-31 18:42:00,67.0,47.0,29.88,WSW,246,2.0,6.0,49,0.00,,,0.00,,2013-04-01 01:42:00,
2013-03-31 18:52:00,65.0,46.0,29.88,WSW,244,1.0,5.0,51,0.00,,,0.00,,2013-04-01 01:52:00,
2013-03-31 19:02:00,64.0,47.0,29.88,West,259,1.0,5.0,53,0.00,,,0.00,,2013-04-01 02:02:00,
2013-03-31 19:12:00,64.0,47.0,29.88,West,259,1.0,5.0,53,0.00,,,0.00,,2013-04-01 02:12:00,
2013-03-31 19:22:00,62.0,46.0,29.88,WNW,299,2.0,6.0,55,0.00,,,0.00,,2013-04-01 02:22:00,
2013-03-31 19:32:00,61.0,46.0,29.88,WNW,298,2.0,6.0,58,0.00,,,0.00,,2013-04-01 02:32:00,
2013-03-31 19:42:00,61.0,46.0,29.88,WNW,298,2.0,6.0,58,0.00,,,0.00,,2013-04-01 02:42:00,
2013-03-31 19:53:00,59.0,45.0,29.88,WNW,302,0.0,3.0,60,0.00,,,0.00,,2013-04-01 02:53:00,
2013-03-31 20:02:00,58.0,45.0,29.88,WNW,302,0.0,3.0,63,0.00,,,0.00,,2013-04-01 03:02:00,
2013-03-31 20:11:00,58.0,45.0,29.88,WNW,302,0.0,3.0,63,0.00,,,0.00,,2013-04-01 03:11:00,
2013-03-31 20:22:00,56.0,45.0,29.88,WNW,292,0.0,1.0,66,0.00,,,0.00,,2013-04-01 03:22:00,
2013-03-31 20:33:00,55.0,45.0,29.89,NW,316,2.0,4.0,69,0.00,,,0.00,,2013-04-01 03:33:00,
2013-03-31 20:43:00,55.0,45.0,29.89,NW,316,2.0,4.0,69,0.00,,,0.00,,2013-04-01 03:43:00,
2013-03-31 20:53:00,54.0,45.0,29.89,NW,316,0.0,3.0,71,0.00,,,0.00,,2013-04-01 03:53:00,
2013-03-31 21:02:00,52.0,44.0,29.90,NW,316,0.0,0.0,73,0.00,,,0.00,,2013-04-01 04:02:00,
2013-03-31 21:12:00,52.0,44.0,29.90,NW,316,0.0,0.0,73,0.00,,,0.00,,2013-04-01 04:12:00,
2013-03-31 21:23:00,51.0,44.0,29.90,NW,316,0.0,0.0,76,0.00,,,0.00,,2013-04-01 04:23:00,
2013-03-31 21:32:00,49.0,43.0,29.91,NW,316,0.0,0.0,79,0.00,,,0.00,,2013-04-01 04:32:00,
2013-03-31 21:42:00,49.0,43.0,29.91,NW,316,0.0,0.0,79,0.00,,,0.00,,2013-04-01 04:42:00,
2013-03-31 21:53:00,49.0,43.0,29.91,NW,316,0.0,0.0,79,0.00,,,0.00,,2013-04-01 04:53:00,
2013-03-31 22:02:00,47.0,42.0,29.91,NW,316,0.0,0.0,83,0.00,,,0.00,,2013-04-01 05:02:00,
2013-03-31 22:12:00,47.0,42.0,29.91,NW,316,0.0,0.0,83,0.00,,,0.00,,2013-04-01 05:12:00,
2013-03-31 22:22:00,46.0,41.0,29.91,NW,316,0.0,0.0,84,0.00,,,0.00,,2013-04-01 05:22:00,
2013-03-31 22:32:00,45.0,41.0,29.91,NW,316,0.0,0.0,87,0.00,,,0.00,,2013-04-01 05:32:00,
2013-03-31 22:52:00,44.0,41.0,29.92,NW,316,0.0,2.0,88,0.00,,,0.00,,2013-04-01 05:52:00,
2013-03-31 23:01:00,44.0,41.0,29.92,NW,316,0.0,0.0,89,0.00,,,0.00,,2013-04-01 06:01:00,
2013-03-31 23:12:00,44.0,41.0,29.92,NW,316,0.0,0.0,89,0.00,,,0.00,,2013-04-01 06:12:00,
2013-03-31 23:22:00,43.0,40.0,29.92,NW,316,0.0,0.0,89,0.00,,,0.00,,2013-04-01 06:22:00,